Weather Roundup
Issued by NWS

Home | Current Version | Previous Version | Graphics & Text | Print | Product List | Glossary Off
Versions: 1 2 3 4 5 6 7 8 9 10 11 12 13 14 15 16 17 18 19 20 21 22 23 24 25 26 27 28 29 30 31 32 33 34 35 36 37 38 39 40 41 42 43 44 45 46 47 48 49 50

000
NZUS93 KARX 241810
HRRWXR

CURRENT HOURLY OBSERVATIONS ACROSS
MUCH OF THE UPPER MISSISSIPPI VALLEY
NATIONAL WEATHER SERVICE LA CROSSE WI
100 PM CDT TUE APR 24 2018


...SOUTHEAST MINNESOTA...


CITY           SKY/WX    TMP DP  RH WIND       PRES   REMARKS
ROCHESTER      PTSUNNY   67  40  37 CALM      30.10F
ROCHESTER/MAYO FAIR      67  36  31 NW7G16    30.10F
WINONA         FAIR      70  36  28 NW8         N/A
AUSTIN         FAIR      66  41  39 NW8       30.11F
ALBERT LEA     FAIR      64  39  39 NW7       30.12F
DODGE CENTER   FAIR      64  41  42 N7        30.11F
PRESTON        FAIR      66  37  33 N8        30.09F
OWATONNA       FAIR      64  50  59 NW21      30.13R
FARIBAULT      NOT AVBL
$$

...ELSEWHERE IN MINNESOTA...


CITY           SKY/WX    TMP DP  RH WIND       PRES   REMARKS
MINNEAPOLIS    PTSUNNY   64  33  31 N18G25    30.16S
INTNL FALLS    PTSUNNY   45  28  51 N15G25    30.28R
DULUTH         CLOUDY    49  34  56 NW10      30.21S
RED WING       PTSUNNY   64  32  29 N10       30.10R
REDWOOD FALLS  CLOUDY    54  37  52 N16G22    30.23R
MANKATO        FAIR      60  41  49 N17       30.15F
WORTHINGTON    CLOUDY    54  41  61 N21G29    30.20F
FAIRMONT       CLOUDY    55  45  68 NW17      30.16F
$$

...SOUTHWEST WISCONSIN...


CITY           SKY/WX    TMP DP  RH WIND       PRES   REMARKS
LA CROSSE      FAIR      71  35  26 W10       30.06F
PRAIRIE DU CHI FAIR      71  28  19 NW13      30.06F
BOSCOBEL       FAIR      73  29  19 VRB6      30.05F
LONE ROCK      FAIR      71  31  22 NW8       30.04F
PLATTEVILLE    FAIR      68  31  25 N9        30.05F
FORT MC COY    FAIR      70  33  25 W9        30.07F
CAMP DOUGLAS   MOSUNNY   70  34  26 NW8       30.06F
MAUSTON-NEW LI FAIR      68  35  29 NW9       30.05F
VIROQUA        FAIR      67  36  31 N6        30.07F
WIS DELLS      FAIR      69  27  21 NE7       30.05F
$$

...ELSEWHERE IN WISCONSIN...


CITY           SKY/WX    TMP DP  RH WIND       PRES   REMARKS
MILWAUKEE      FAIR      58  42  55 NE8       30.06F
MADISON        FAIR      69  30  23 N8        30.04F
GREEN BAY      FAIR      62  34  35 VRB6      30.06F
EAU CLAIRE     PTSUNNY   68  34  28 N14       30.09F
BLACK RVR FLS  FAIR      72  31  21 W8        30.06F
MEDFORD        CLOUDY    63  38  40 NW7       30.08S
WAUSAU         FAIR      68  31  25 VRB6      30.04F
WIS RAPIDS     FAIR      68  31  25 CALM      30.06F
MARSHFIELD     FAIR      68  34  28 W8        30.06F
RICE LAKE      FAIR      61  31  32 N13       30.16S
$$

...NORTHEAST IOWA...


CITY           SKY/WX    TMP DP  RH WIND       PRES   REMARKS
WATERLOO       FAIR      67  35  30 NW12G17   30.07F
DUBUQUE        FAIR      69  31  24 N8        30.06F
DECORAH        FAIR      68  36  30 NW8G17    30.07F
MASON CITY     SUNNY     67  43  41 NW12      30.13F
CHARLES CITY   FAIR      70  36  28 N9        30.10F
OELWEIN        FAIR      70  32  24 N12       30.08F
$$

...ELSEWHERE IN IOWA...


CITY           SKY/WX    TMP DP  RH WIND       PRES   REMARKS
DES MOINES     CLOUDY    73  33  23 N5        30.09F
IOWA CITY      FAIR      71  28  20 MISG      30.07F
FORT DODGE     SUNNY     68  43  40 VRB6      30.13F
MARSHALLTOWN   SUNNY     71  34  25 N13       30.08F
CEDAR RAPIDS   FAIR      72  29  20 N12       30.06F
$$

...NORTHERN ILLINOIS...


CITY           SKY/WX    TMP DP  RH WIND       PRES   REMARKS
CHICAGO-OHARE  PTSUNNY   64  48  56 NE9       30.02F
CHICAGO-MIDWAY PTSUNNY   62  49  62 NE8       30.02F
MOLINE         FAIR      72  29  20 N9        30.02F
ROCKFORD       FAIR      69  30  23 N12G17    30.03F
PEORIA         FAIR      69  46  43 VRB3G18   30.01F
$$

NOTE: "FAIR" INDICATES FEW OR NO CLOUDS BELOW 12,000 FEET WITH NO
SIGNIFICANT WEATHER AND/OR OBSTRUCTIONS TO VISIBILITY. WIND
SPEEDS ARE IN MILES-PER-HOUR.




USA.gov is the U.S. government's official web portal to all federal, state and local government web resources and services.